Weather History for Jonesboro, AR

Change the Weather History Date:

Sunday, October 27, 2013

  Actual Average Record
Temperature  
Mean Temperature 54 °F 58 °F  
Max Temperature 61 °F 69 °F 89 °F (1921)
Min Temperature 47 °F 47 °F 29 °F (1898)
Degree Days  
Heating Degree Days 11 8  
Month to date heating degree days 151 135  
Since 1 July heating degree days 151 153  
Cooling Degree Days 0 1  
Month to date cooling degree days 66 49  
Year to date cooling degree days 2034 1820  
Growing Degree Days 6 (Base 50)    
Moisture  
Dew Point 45 °F    
Average Humidity 77    
Maximum Humidity 96    
Minimum Humidity 57    
Precipitation  
Precipitation 0.00 in 0.13 in 2.18 in (2006)
Month to date precipitation 3.73 3.80  
Year to date precipitation 42.46 37.97  
Snow  
Snow 0.00 in - 0.00 in (2002)
Month to date snowfall 0.0  
Since 1 July snowfall 0.0  
Since 1 September snowfall 0.0  
Snow Depth 0.00 in    
Sea Level Pressure  
Sea Level Pressure 30.07 in    
Wind  
Wind Speed 4 mph (NE)    
Max Wind Speed 14 mph    
Max Gust Speed 24 mph    
Visibility 10 miles    
Events      
T = Trace of Precipitation, MM = Missing Value Source: NWS Daily Summary

Daily Weather History Graph

Daily Weather History Graph

Search for Another Location

Airport:

Trip Planner

Search our weather history database for the weather conditions in past years. The results will help you decide how hot, cold, wet, or windy it might be!

Date:

Astronomy

Oct. 27, 2013 Rise Set
Actual Time 7:20 AM CDT 6:11 PM CDT
Civil Twilight 6:54 AM CDT 6:38 PM CDT
Nautical Twilight 6:24 AM CDT 7:08 PM CDT
Astronomical Twilight 5:54 AM CDT 7:37 PM CDT
Moon 12:30 AM CDT (10/27) 2:09 PM CDT (10/27)
Length of Visible Light 11h 44m
Length of Day
10h 51m
Last Quarter, 43% of the Moon is Illuminated
Oct 27
Last Quarter
Nov 3
New
Nov 9
First Quarter
Nov 17
Full
Nov 25
Last Quarter

Hourly Weather History & Observations

Time (CDT) Temp. Dew Point Humidity Pressure Visibility Wind Dir Wind Speed Gust Speed Precip Events Conditions
12:53 AM 52.0 °F 48.9 °F 89% 30.08 in 10.0 mi West 3.5 mph - N/A   Mostly Cloudy
1:53 AM 51.1 °F 48.9 °F 92% 30.08 in 10.0 mi WSW 3.5 mph - N/A   Overcast
2:53 AM 53.1 °F 50.0 °F 89% 30.07 in 10.0 mi Calm Calm - N/A   Overcast
3:53 AM 53.1 °F 43.0 °F 69% 30.09 in 10.0 mi ENE 10.4 mph - N/A   Overcast
4:53 AM 51.1 °F 39.0 °F 63% 30.09 in 10.0 mi NE 6.9 mph - N/A   Overcast
5:53 AM 51.1 °F 37.0 °F 59% 30.09 in 10.0 mi NE 9.2 mph - N/A   Overcast
6:53 AM 50.0 °F 37.9 °F 63% 30.08 in 10.0 mi NE 5.8 mph - N/A   Overcast
7:53 AM 50.0 °F 37.9 °F 63% 30.09 in 10.0 mi NNE 5.8 mph - N/A   Overcast
8:53 AM 51.1 °F 37.9 °F 61% 30.11 in 10.0 mi NE 4.6 mph - N/A   Overcast
9:53 AM 54.0 °F 39.0 °F 57% 30.10 in 10.0 mi NNE 8.1 mph - N/A   Overcast
10:53 AM 55.0 °F 41.0 °F 59% 30.12 in 10.0 mi ENE 6.9 mph - N/A   Mostly Cloudy
11:53 AM 55.0 °F 42.1 °F 62% 30.12 in 10.0 mi East 3.5 mph - N/A   Overcast
12:53 PM 59.0 °F 44.1 °F 58% 30.09 in 10.0 mi East 5.8 mph - N/A   Overcast
1:53 PM 57.9 °F 45.0 °F 62% 30.06 in 10.0 mi East 3.5 mph - N/A   Overcast
2:53 PM 59.0 °F 46.0 °F 62% 30.05 in 10.0 mi East 3.5 mph - N/A   Mostly Cloudy
3:53 PM 61.0 °F 46.9 °F 60% 30.04 in 10.0 mi Calm Calm - N/A   Overcast
4:53 PM 60.1 °F 46.9 °F 62% 30.04 in 10.0 mi NNE 5.8 mph - N/A   Mostly Cloudy
5:53 PM 57.9 °F 48.0 °F 70% 30.03 in 10.0 mi Calm Calm - N/A   Overcast
6:53 PM 55.0 °F 50.0 °F 83% 30.03 in 10.0 mi Calm Calm - N/A   Overcast
7:53 PM 54.0 °F 50.0 °F 86% 30.05 in 10.0 mi Calm Calm - N/A   Overcast
8:53 PM 54.0 °F 50.0 °F 86% 30.05 in 10.0 mi Calm Calm - N/A   Overcast
9:53 PM 52.0 °F 50.0 °F 93% 30.06 in 10.0 mi Calm Calm - N/A   Overcast
10:53 PM 50.0 °F 48.0 °F 93% 30.07 in 10.0 mi Calm Calm - N/A   Clear
11:53 PM 48.0 °F 46.9 °F 96% 30.07 in 10.0 mi Calm Calm - N/A   Clear